This demonstration page uses our WeatherBlox Daily Observations layout. Learn more.

Left ArrowRight Arrow

Hourly Observations for September 27, 2020

Temp ( °F °C ) Dew Point ( °F °C ) Humidity (%) Winds ( mph kmh ) Pressure ( in mb ) Visibility ( mi km ) Precip ( " mm )
12:52 am 00:52 Cloudy 69 20.6 49 9.4 49 49 NNW 12 19 29.72 1007 10 16 0.00 0.00
1:52 am 01:52 Cloudy 66 18.9 50 10 56 56 NE 3 6 29.76 1008 10 16 0.00 0.00
2:52 am 02:52 Cloudy 64 17.8 50 10 60 60 N 5 7 29.74 1007 10 16 0.00 0.00
3:52 am 03:52 Cloudy 64 17.8 49 9.4 58 58 Calm 29.77 1008 10 16 0.00 0.00
4:52 am 04:52 Cloudy 63 17.2 53 11.7 70 70 E 3 6 29.76 1008 10 16 0.00 0.00
5:52 am 05:52 Cloudy 62 16.7 54 12.2 75 75 Calm 29.76 1008 10 16 0.00 0.00
6:52 am 06:52 Cloudy 62 16.7 54 12.2 75 75 Calm 29.79 1009 10 16 0.00 0.00
7:52 am 07:52 Cloudy with Light Rain 61 16.1 56 13.3 84 84 SE 5 7 29.83 1010 10 16 0.00 0.00
8:26 am 08:26 Cloudy with Thunderstorms 61 16.1 51 10.6 70 70 WNW 3 6 29.87 1011 10 16 0.00 0.00
8:52 am 08:52 Cloudy with Thunderstorms 61 16.1 53 11.7 75 75 SE 3 6 29.86 1011 10 16 0.00 0.00
9:13 am 09:13 Cloudy 60 15.6 57 13.9 90 90 SE 3 6 29.87 1011 10 16 0.00 0.00
9:52 am 09:52 Cloudy 60 15.6 58 14.4 93 93 Calm 29.90 1013 10 16 0.00 0.00
10:52 am 10:52 Cloudy 60 15.6 53 11.7 78 78 NW 8 13 29.92 1013 10 16 0.00 0.00
11:52 am 11:52 Cloudy 60 15.6 48 8.9 65 65 NNW 10 17 29.90 1013 10 16 0.00 0.00
12:52 pm 12:52 Mostly Cloudy with Light Rain 60 15.6 48 8.9 65 65 VRB 5 7 29.92 1013 10 16 0.00 0.00
1:52 pm 13:52 Cloudy 61 16.1 46 7.8 58 58 W 3 6 29.93 1014 10 16 0.00 0.00
2:52 pm 14:52 Mostly Cloudy 61 16.1 44 6.7 54 54 SSW 6 9 29.91 1013 10 16 0.00 0.00
3:52 pm 15:52 Mostly Cloudy 62 16.7 45 7.2 54 54 SSW 7 11 29.89 1012 10 16 0.00 0.00
4:52 pm 16:52 Mostly Cloudy 64 17.8 45 7.2 50 50 W 9 15 29.89 1012 10 16 0.00 0.00
5:52 pm 17:52 Mostly Cloudy 63 17.2 44 6.7 50 50 SW 10 17 29.88 1012 10 16 0.00 0.00
6:52 pm 18:52 Mostly Cloudy 62 16.7 43 6.1 50 50 SW 6 9 29.90 1012 10 16 0.00 0.00
7:52 pm 19:52 Mostly Cloudy 61 16.1 44 6.7 54 54 W 12 19 29.91 1013 10 16 0.00 0.00
8:52 pm 20:52 Mostly Cloudy 59 15 45 7.2 60 60 W 7 11 29.93 1014 10 16 0.00 0.00
9:52 pm 21:52 Partly Cloudy 58 14.4 40 4.4 51 51 NNW 17 28 29.96 1015 10 16 0.00 0.00
10:52 pm 22:52 Partly Cloudy 55 12.8 41 5 59 59 WNW 9 15 29.96 1014 10 16 0.00 0.00
11:52 pm 23:52 Mostly Cloudy 55 12.8 42 5.6 62 62 NW 14 22 29.96 1015 10 16 0.00 0.00

Powered by AerisWeather